RH
97 99 96 95 94 93 93 91 90 89 88 86 86 84 81 77 75 73 71 73 76 77 81 83 82 83 84 83 77 75 63 82
99 98 97 96 95 92 91 90 88 87 87 86 85 83 81 80 79 77 78 77 78 79 84 85 86 87 86 82 73 65 58 62
97 97 96 95 93 91 89 87 87 86 86 84 88 90 89 86 84 84 84 83 84 83 83 85 83 81 82 83 69 65 59 60
95 95 95 94 79 93 94 90 93 93 92 92 93 93 93 87 89 86 81 73 76 74 73 71 72 81 82 76 73 69 65 62
91 93 94 94 84 97 97 98 97 95 92 93 94 93 96 97 93 83 83 75 78 74 74 76 77 80 80 79 76 74 73 68
82 86 86 90 89 96 95 97 97 97 95 92 96 92 88 84 85 84 85 85 79 81 83 79 74 70 71 72 70 73 74 71
77 83 84 82 86 92 94 95 95 93 94 87 88 85 86 85 84 80 82 80 82 80 76 71 71 69 67 68 69 73 74 72
81 86 85 77 81 88 90 92 91 93 87 84 83 84 86 79 73 74 78 78 80 79 75 73 71 70 65 67 70 72 72 72
89 90 86 84 78 83 89 76 83 81 80 83 81 80 73 70 74 78 79 78 74 73 71 70 68 65 67 71 72 73 72 75
93 91 90 91 89 89 74 88 81 82 80 77 71 70 70 75 76 79 78 76 76 75 75 74 73 74 78 78 76 75 75 78
96 96 92 92 94 84 78 79 77 71 72 71 71 69 70 72 71 76 71 75 78 75 74 78 75 79 77 75 77 77 81 65
97 95 95 95 85 83 83 71 73 76 69 73 61 61 65 65 66 75 77 75 80 82 81 82 82 88 73 71 80 81 82 77
93 96 95 70 84 79 82 78 85 91 69 60 60 62 65 72 76 78 82 83 86 87 90 91 90 94 91 81 86 81 80 76
88 83 75 70 81 88 87 90 75 64 64 70 68 69 70 69 77 81 85 83 84 91 92 93 93 95 94 96 90 82 79 62
60 62 63 71 78 80 77 78 78 74 72 71 72 71 71 72 76 82 86 87 88 94 94 94 97 94 94 93 93 95 84 76
63 62 64 64 65 65 68 75 81 86 77 75 74 71 72 70 76 78 83 87 90 93 89 95 94 97 94 84 90 91 85 75
68 64 65 68 71 75 80 86 84 78 74 68 66 68 69 72 76 79 82 86 88 88 91 91 95 95 94 95 95 94 93 90
73 68 73 72 73 73 77 76 75 73 72 67 72 80 86 77 78 84 85 86 86 89 89 89 92 94 94 94 97 96 97 98
73 73 73 71 69 70 72 72 71 68 69 73 76 84 89 79 85 87 88 86 86 89 91 91 92 94 94 94 96 96 96 96
68 64 69 69 69 70 72 70 74 74 73 77 81 85 85 77 81 87 86 85 87 89 92 93 90 93 91 93 96 90 84 90
Wind_Speed
6 5 7 9 10 10 10 9 8 7 7 7 5 5 5 6 7 7 8 9 9 10 10 10 11 11 11 10 10 9 6 4
5 5 6 6 6 9 9 9 9 10 8 7 6 6 3 4 6 7 8 10 10 11 11 11 12 13 12 10 10 10 6 5
4 5 4 5 4 5 8 9 8 8 7 7 5 3 2 3 4 7 8 10 9 10 11 10 11 12 13 13 9 4 6 4
4 5 5 4 3 5 5 5 4 4 4 4 3 2 1 2 5 7 8 10 10 9 10 10 8 4 4 8 4 5 4 4
7 5 5 6 5 4 2 2 2 2 4 3 3 2 2 3 3 3 3 6 3 5 5 4 6 5 5 5 6 5 4 4
6 6 5 5 2 2 1 2 2 2 2 2 2 3 4 3 3 3 3 3 5 5 4 4 6 6 5 6 6 5 4 3
5 5 3 2 2 1 1 2 3 3 1 2 3 3 4 3 4 4 4 4 4 4 5 5 5 6 5 6 6 6 7 4
4 4 3 2 1 2 2 3 2 2 3 3 5 3 4 4 4 4 4 4 4 4 4 4 4 4 5 5 5 5 5 6
7 8 7 6 5 5 4 3 3 4 4 6 6 5 6 6 4 4 4 4 5 5 5 4 4 3 4 4 4 5 5 5
10 8 7 8 8 9 5 4 4 4 5 5 6 6 7 5 4 4 4 4 3 3 2 2 3 3 4 4 4 4 5 5
11 9 8 7 10 4 3 6 6 4 4 4 6 6 6 5 4 4 3 4 3 3 2 1 3 4 4 4 4 3 3 3
9 7 11 7 2 3 4 5 3 4 4 3 6 5 5 4 6 3 5 3 4 3 3 2 1 1 4 2 5 3 3 3
7 8 4 5 2 4 3 2 3 2 3 5 5 7 5 6 4 5 3 4 3 4 2 3 3 4 2 3 3 1 3 4
6 7 7 5 3 3 3 3 2 4 4 5 6 6 5 5 5 3 3 3 5 5 4 3 2 4 2 2 3 4 3 8
7 7 8 5 3 3 3 3 4 3 3 3 3 4 5 4 4 4 4 3 3 3 3 4 2 2 5 1 4 3 6 3
7 6 5 4 4 3 3 2 2 1 2 1 1 1 3 3 3 3 4 3 4 3 3 3 3 3 3 2 1 2 5 8
4 5 5 5 5 5 4 5 3 2 2 3 1 1 1 1 1 2 3 2 1 1 2 2 1 1 1 2 2 3 4 4
4 6 6 6 6 6 7 7 5 3 2 3 3 3 3 3 4 3 3 2 1 1 1 1 2 2 1 2 2 2 3 3
5 6 6 5 6 6 5 5 5 4 4 4 4 3 3 5 2 1 1 2 2 3 3 3 3 2 2 2 2 3 2 2
6 7 4 3 3 2 3 5 3 3 4 4 4 3 2 2 2 3 4 4 4 4 2 3 3 3 5 3 2 2 1 2
Wind_Direction
154 146 142 141 139 148 139 137 133 131 126 123 116 100 88 76 62 44 33 29 27 24 24 17 13 6 7 13 10 26 28 10
150 143 146 150 154 149 141 148 148 148 150 136 128 104 87 62 53 27 18 12 8 9 13 7 2 356 356 4 4 7 12 9
162 162 153 150 147 155 147 149 154 156 151 143 130 122 88 20 29 11 18 13 10 10 15 20 14 6 358 356 3 348 346 343
177 169 171 158 159 149 154 159 161 163 155 167 162 162 127 67 38 33 37 32 43 47 44 32 27 15 355 354 344 335 340 323
197 177 174 175 179 158 145 146 157 164 178 186 166 114 61 67 69 49 40 62 63 55 34 32 30 24 13 359 344 342 333 323
172 184 184 195 96 136 138 145 174 178 202 181 133 104 99 92 87 77 53 32 43 38 33 33 34 31 32 5 350 342 338 334
181 169 176 181 92 120 184 224 203 198 185 99 88 98 110 103 79 56 39 28 36 37 35 23 20 16 14 11 354 347 344 340
94 71 51 54 263 227 221 239 264 58 64 73 84 101 97 78 71 62 53 35 38 45 31 23 17 11 358 360 342 336 332 335
109 84 48 52 35 15 351 352 47 61 60 67 76 81 83 82 74 61 44 35 44 42 22 14 6 347 348 348 338 333 338 347
88 86 72 61 52 47 351 358 76 69 63 65 70 68 75 79 80 75 95 69 47 53 25 328 316 355 337 331 325 320 344 15
100 86 74 59 74 69 51 44 59 69 72 69 61 82 95 100 82 51 55 62 32 7 359 3 342 347 331 324 319 325 8 33
101 91 67 64 77 106 75 75 80 70 77 72 99 85 36 66 70 42 36 34 22 8 12 335 284 296 298 315 286 325 73 37
58 91 142 162 148 112 82 108 85 46 78 73 65 71 70 62 64 47 31 57 47 26 348 352 317 334 6 319 311 195 77 12
147 170 154 152 152 162 143 172 109 92 74 57 62 71 69 80 87 87 77 69 38 32 37 328 314 19 338 298 339 325 349 335
132 138 143 162 125 104 74 71 64 66 47 48 30 80 96 103 91 77 66 56 32 24 22 39 340 323 24 45 345 309 338 311
81 90 99 95 66 60 76 88 127 53 117 105 81 100 59 95 96 98 81 61 49 18 32 30 37 18 337 18 236 255 303 306
101 106 85 71 72 93 107 92 103 141 143 168 95 128 284 307 81 70 76 90 107 69 36 18 38 246 253 306 276 268 249 293
81 78 64 61 71 72 101 122 143 139 216 229 226 224 243 222 197 179 175 125 33 312 268 284 275 271 284 293 270 297 294 287
92 84 75 83 94 101 126 151 175 210 231 234 245 240 228 228 202 225 337 319 292 258 271 293 308 288 303 288 268 265 266 273
101 85 89 82 86 146 192 202 217 244 267 288 275 282 260 211 213 208 235 237 266 265 252 268 286 295 290 281 287 293 322 305